Stations météo

réclame
Mon MeteoGroup
Cardinham, Grande-Bretagne (3823): Température de l'air & dewpoint: 13.01.2020 20:00:00 - 19.01.2020 20:00:00 (GMT)Cardinham, Grande-Bretagne (3823): Température de l'air -20cm & Température de l'air -100cm: 13.01.2020 20:00:00 - 19.01.2020 20:00:00 (GMT)Cardinham, Grande-Bretagne (3823): Vitesse du vent & gusts: 13.01.2020 20:00:00 - 19.01.2020 20:00:00 (GMT)Cardinham, Grande-Bretagne (3823): Direction du vent: 13.01.2020 20:00:00 - 19.01.2020 20:00:00 (GMT)Cardinham, Grande-Bretagne (3823): reduced air pressure: 13.01.2020 20:00:00 - 19.01.2020 20:00:00 (GMT)Cardinham, Grande-Bretagne (3823): visibility: 13.01.2020 20:00:00 - 19.01.2020 20:00:00 (GMT)Cardinham, Grande-Bretagne (3823): Quantités de précipitations: 13.01.2020 20:00:00 - 19.01.2020 20:00:00 (GMT)
Date & Time tt [°C] td [°C] tt -20cm [°C] tt -100cm [°C] ff [km/h] ff [knt] fx [km/h] fx [knt] dd ppp [hPa] vv [km] rr [mm]
19.01.2020 20:00:00 2,6 -1,4 - - 9 5 - - NE 1049,3 30 0,0
19.01.2020 19:00:00 2,7 -0,8 - - 8 4 - - ENE 1048,5 24 0,0
19.01.2020 18:00:00 2,9 0,1 - - 5 3 - - ENE 1048,3 28 0,0
19.01.2020 17:00:00 3,2 -0,7 - - 11 6 - - NW 1048,0 21 0,0
19.01.2020 16:00:00 7,2 -0,2 - - 5 3 - - NW 1047,2 28 0,0
19.01.2020 15:00:00 8,9 -2,3 - - 2 1 - - SW 1046,5 30 0,0
19.01.2020 14:00:00 7,6 -1,7 - - 9 5 - - SSE 1046,0 40 0,0
19.01.2020 13:00:00 7,6 -1,4 - - 9 5 - - SSE 1045,9 30 0,0
19.01.2020 12:00:00 6,1 -0,7 - - 8 4 - - ENE 1046,5 30 0,0
19.01.2020 11:00:00 5,7 0,1 - - 4 2 - - NE 1046,6 50 0,0
19.01.2020 10:00:00 4,1 -0,5 - - 4 2 - - E 1045,6 30 0,0
19.01.2020 09:00:00 2,3 -0,6 6,7 8,0 9 5 - - E 1044,7 27 0,0
19.01.2020 08:00:00 0,9 -0,7 - - 5 3 - - E 1044,1 35 0,0
19.01.2020 07:00:00 1,2 0,0 - - 13 7 - - ENE 1042,9 35 0,0
19.01.2020 06:00:00 0,9 0,2 - - 5 3 - - ESE 1042,5 20 0,0
19.01.2020 05:00:00 0,9 0,0 - - 9 5 - - N 1041,7 19 0,0
19.01.2020 04:00:00 1,5 0,4 - - 16 9 - - NNE 1040,8 24 0,0
19.01.2020 03:00:00 2,0 1,0 - - 21 11 - - NNE 1040,2 24 0,0
19.01.2020 02:00:00 0,9 0,2 - - 11 6 - - NE 1039,8 26 0,0
19.01.2020 01:00:00 0,3 -0,9 - - 11 6 - - N 1039,8 20 0,0
19.01.2020 00:00:00 0,8 -0,5 - - 13 7 - - NNE 1038,8 28 0,0
18.01.2020 23:00:00 0,4 -0,7 - - 15 8 - - NNE 1038,2 21 0,0
18.01.2020 22:00:00 0,7 -1,0 - - 11 6 - - NNE 1037,2 23 0,0
18.01.2020 21:00:00 1,6 -0,3 - - 4 2 - - W 1036,3 28 0,0
18.01.2020 20:00:00 1,6 -0,9 - - 4 2 - - SSW 1035,0 25 0,0
18.01.2020 19:00:00 1,4 -0,9 - - 9 5 - - NE 1034,1 21 0,0
18.01.2020 18:00:00 1,3 -0,9 - - 5 3 - - E 1032,7 26 0,0
18.01.2020 17:00:00 2,7 -0,7 - - 8 4 - - NE 1031,5 17 0,0
18.01.2020 16:00:00 5,3 -0,1 - - 9 5 - - NNE 1030,2 21 0,0
18.01.2020 15:00:00 5,8 0,3 - - 15 8 - - NE 1029,8 35 0,0
18.01.2020 14:00:00 6,2 -0,7 - - 13 7 - - ENE 1029,3 30 0,0
18.01.2020 13:00:00 6,0 0,5 - - 16 9 - - ENE 1028,9 27 0,0
18.01.2020 12:00:00 6,0 1,7 - - 15 8 - - E 1028,5 35 0,0
18.01.2020 11:00:00 5,5 2,1 - - 11 6 - - E 1028,3 27 0,2
18.01.2020 10:00:00 3,8 1,3 - - 8 4 - - E 1027,8 17 0,0
18.01.2020 09:00:00 2,3 0,5 7,2 8,0 8 4 - - E 1027,3 18 0,0
18.01.2020 08:00:00 1,9 0,7 - - 9 5 - - E 1026,5 17 0,0
18.01.2020 07:00:00 2,0 0,9 - - 5 3 - - E 1026,4 16 0,0
18.01.2020 06:00:00 2,2 1,2 - - 5 3 - - ENE 1026,1 15 0,0
18.01.2020 05:00:00 2,4 1,9 - - 4 2 - - ENE 1025,6 15 0,0
18.01.2020 04:00:00 2,3 1,8 - - 4 2 - - NNE 1025,2 17 0,0
18.01.2020 03:00:00 2,2 1,6 - - 4 2 - - N 1024,9 14 0,0
18.01.2020 02:00:00 2,5 1,6 - - 9 5 - - NNW 1024,7 18 0,0
18.01.2020 01:00:00 3,7 2,9 - - 11 6 - - NNW 1024,3 29 0,0
18.01.2020 00:00:00 3,2 2,1 - - 8 4 - - NW 1023,4 28 0,0
17.01.2020 23:00:00 4,1 2,7 - - 11 6 - - NW 1022,4 30 0,0
17.01.2020 22:00:00 4,7 3,6 - - 15 8 - - W 1021,8 27 0,0
17.01.2020 21:00:00 4,7 3,4 - - 18 10 - - W 1020,7 22 0,0
17.01.2020 20:00:00 4,7 2,7 - - 18 10 - - W 1020,4 22 0,0
17.01.2020 19:00:00 4,7 2,7 - - 18 10 - - W 1019,6 20 0,0
17.01.2020 18:00:00 4,0 2,5 - - 18 10 - - W 1018,7 25 0,0
17.01.2020 17:00:00 3,9 3,0 - - 15 8 - - WSW 1018,0 20 1,2
17.01.2020 16:00:00 5,1 2,7 - - 26 14 - - WSW 1017,0 23 0,0
17.01.2020 15:00:00 4,4 2,4 - - 15 8 - - SW 1016,7 45 0,4
17.01.2020 14:00:00 4,3 2,3 - - 13 7 48 26 SW 1016,3 45 0,2
17.01.2020 13:00:00 3,8 0,8 - - 39 21 59 32 W 1016,5 6 0,2
17.01.2020 12:00:00 5,4 1,8 - - 28 15 - - W 1015,6 35 0,0
17.01.2020 11:00:00 5,2 2,5 - - 26 14 - - W 1015,3 9 0,2
17.01.2020 10:00:00 5,1 4,3 - - 21 11 - - W 1014,0 14 0,2
17.01.2020 09:00:00 4,6 3,6 7,7 8,0 21 11 - - W 1013,0 29 0,4
17.01.2020 08:00:00 4,9 4,1 - - 21 11 - - W 1011,7 5 0,4
17.01.2020 07:00:00 4,8 4,0 - - 24 13 - - WNW 1010,2 5 0,0
17.01.2020 06:00:00 5,0 4,6 - - 37 20 63 34 WNW 1008,3 16 0,4
17.01.2020 05:00:00 5,6 4,7 - - 22 12 - - WSW 1006,8 35 0,6
17.01.2020 04:00:00 6,2 4,2 - - 24 13 - - SW 1006,3 40 0,0
17.01.2020 03:00:00 7,0 5,6 - - 21 11 - - SSW 1006,3 30 0,2
17.01.2020 02:00:00 6,9 5,1 - - 16 9 - - S 1006,5 19 0,0
17.01.2020 01:00:00 8,4 6,8 - - 18 10 - - SSW 1006,3 15 0,0
17.01.2020 00:00:00 8,2 7,2 - - 16 9 - - S 1006,8 11 0,0
16.01.2020 23:00:00 9,1 8,1 - - 24 13 - - SSW 1006,8 11 0,0
16.01.2020 22:00:00 8,9 8,1 - - 18 10 - - SSW 1007,0 9 0,0
16.01.2020 21:00:00 8,4 7,9 - - 18 10 - - S 1007,3 8 0,0
16.01.2020 20:00:00 7,5 6,9 - - 15 8 - - S 1007,4 12 0,0
16.01.2020 19:00:00 8,1 7,0 - - 15 8 - - SSW 1007,1 13 0,0
16.01.2020 18:00:00 8,6 7,1 - - 18 10 - - SW 1006,2 16 0,0
16.01.2020 17:00:00 9,3 7,2 - - 28 15 54 29 SW 1005,1 19 0,0
16.01.2020 16:00:00 10,5 8,8 - - 39 21 61 33 SW 1004,0 12 0,0
16.01.2020 15:00:00 11,1 10,6 - - 42 23 72 39 SSW 1003,0 11 0,4
16.01.2020 14:00:00 10,9 10,9 - - 48 26 74 40 S 1001,9 2,2 3,6
16.01.2020 13:00:00 10,4 10,1 - - 42 23 78 42 S 1002,9 6 0,2
16.01.2020 12:00:00 10,6 10,6 - - 50 27 87 47 S 1003,8 6 1,8
16.01.2020 11:00:00 10,0 10,0 - - 54 29 80 43 S 1004,9 4,5 3,6
16.01.2020 10:00:00 9,2 8,9 - - 46 25 70 38 SSE 1006,1 2,1 4,2
16.01.2020 09:00:00 9,2 8,2 7,5 8,0 41 22 63 34 SSE 1007,6 8 0,2
16.01.2020 08:00:00 8,8 7,2 - - 37 20 52 28 SSE 1008,9 15 0,0
16.01.2020 07:00:00 8,4 6,7 - - 31 17 57 31 SSE 1009,9 14 0,0
16.01.2020 06:00:00 8,3 6,5 - - 35 19 59 32 SSE 1011,3 15 0,0
16.01.2020 05:00:00 8,4 6,3 - - 41 22 61 33 SSE 1012,1 14 0,0
16.01.2020 04:00:00 8,5 6,4 - - 28 15 54 29 S 1013,0 14 0,0
16.01.2020 03:00:00 8,7 6,0 - - 35 19 54 29 S 1014,2 16 0,0
16.01.2020 02:00:00 8,5 6,0 - - 31 17 50 27 S 1014,5 16 0,0
16.01.2020 01:00:00 8,6 6,2 - - 29 16 - - S 1014,8 15 0,0
16.01.2020 00:00:00 7,9 5,4 - - 26 14 48 26 S 1015,2 20 0,0
15.01.2020 23:00:00 7,2 5,6 - - 22 12 - - S 1015,1 14 0,0
15.01.2020 22:00:00 6,4 4,7 - - 18 10 - - S 1015,3 15 0,0
15.01.2020 21:00:00 6,2 4,8 - - 21 11 - - S 1015,1 16 0,0
15.01.2020 20:00:00 6,2 4,7 - - 18 10 - - SSW 1015,1 14 0,0
15.01.2020 19:00:00 5,8 3,8 - - 18 10 - - SSW 1014,8 14 0,0
15.01.2020 18:00:00 6,3 3,3 - - 21 11 - - SW 1013,8 18 0,0
15.01.2020 17:00:00 7,0 3,9 - - 15 8 - - SW 1012,7 22 0,0
15.01.2020 16:00:00 7,9 2,9 - - 24 13 - - WSW 1011,8 29 0,0
15.01.2020 15:00:00 8,5 3,1 - - 29 16 48 26 WSW 1010,7 18 0,0
15.01.2020 14:00:00 8,6 3,9 - - 34 18 48 26 WSW 1009,7 22 0,0
15.01.2020 13:00:00 8,4 4,1 - - 31 17 50 27 WSW 1008,7 20 0,0
15.01.2020 12:00:00 7,9 4,7 - - 24 13 - - WSW 1007,9 24 0,0
15.01.2020 11:00:00 7,1 4,3 - - 15 8 - - SW 1007,0 18 0,0
15.01.2020 10:00:00 6,5 4,3 - - 16 9 - - W 1005,8 16 0,2
15.01.2020 09:00:00 4,9 3,7 7,7 8,0 15 8 - - WSW 1004,1 19 0,0
15.01.2020 08:00:00 5,2 4,1 - - 13 7 - - WSW 1002,8 19 0,0
15.01.2020 07:00:00 5,2 4,2 - - 11 6 - - SW 1001,9 15 0,0
15.01.2020 06:00:00 5,5 4,7 - - 13 7 - - WSW 1000,7 13 0,0
15.01.2020 05:00:00 5,5 5,1 - - 13 7 - - SW 1000,4 14 0,0
15.01.2020 04:00:00 5,8 5,5 - - 11 6 - - SW 999,6 13 0,0
15.01.2020 03:00:00 5,7 5,4 - - 9 5 - - WSW 998,9 17 0,0
15.01.2020 02:00:00 6,1 6,0 - - 8 4 - - SW 998,4 21 0,0
15.01.2020 01:00:00 6,3 6,2 - - 11 6 - - SW 997,9 24 0,2
15.01.2020 00:00:00 6,6 6,6 - - 15 8 48 26 W 997,2 9 0,8
14.01.2020 23:00:00 6,3 6,2 - - 13 7 - - W 996,1 8 1,8
14.01.2020 22:00:00 6,8 6,8 - - 15 8 - - WNW 994,7 2,8 0,6
14.01.2020 21:00:00 7,6 7,6 - - 15 8 - - W 994,4 13 0,8
14.01.2020 20:00:00 8,6 8,4 - - 22 12 - - SW 993,8 8 0,6
14.01.2020 19:00:00 8,8 8,3 - - 24 13 57 31 SW 993,0 10 0,8
14.01.2020 18:00:00 10,1 9,9 - - 29 16 55 30 SW 991,9 7 0,8
14.01.2020 17:00:00 10,4 9,7 - - 35 19 59 32 SW 991,3 20 1,2
14.01.2020 16:00:00 11,4 10,7 - - 44 24 80 43 SW 990,2 5 0,6
14.01.2020 15:00:00 10,9 10,2 - - 52 28 83 45 WSW 989,7 1,1 2,6
14.01.2020 14:00:00 12,3 11,6 - - 57 31 94 51 SW 989,0 4,8 0,2
14.01.2020 13:00:00 12,2 11,8 - - 57 31 89 48 SSW 988,9 4,9 0,2
14.01.2020 12:00:00 12,0 11,9 - - 52 28 76 41 SSW 989,3 2,9 0,6
14.01.2020 11:00:00 10,5 10,5 - - 44 24 67 36 S 990,4 3,7 3,6
14.01.2020 10:00:00 8,5 8,3 - - 41 22 59 32 S 991,2 2,5 1,2
14.01.2020 09:00:00 8,0 5,8 7,7 8,0 29 16 50 27 S 992,7 16 0,0
14.01.2020 08:00:00 8,5 6,3 - - 37 20 54 29 S 994,4 13 0,0
14.01.2020 07:00:00 7,6 6,0 - - 22 12 - - S 995,6 9 0,0
14.01.2020 06:00:00 6,0 4,6 - - 15 8 - - S 996,4 12 0,0
14.01.2020 05:00:00 5,8 4,1 - - 15 8 - - S 996,7 15 0,2
14.01.2020 04:00:00 6,5 4,1 - - 18 10 - - SSW 997,0 12 0,0
14.01.2020 03:00:00 6,4 4,1 - - 22 12 - - SW 996,9 13 0,0
14.01.2020 02:00:00 6,1 3,1 - - 22 12 - - SW 996,8 16 0,0
14.01.2020 01:00:00 6,9 3,8 - - 22 12 - - SSW 996,6 13 0,0
14.01.2020 00:00:00 7,0 3,8 - - 28 15 - - SW 997,1 12 0,0
13.01.2020 23:00:00 6,9 3,6 - - 24 13 - - SW 996,6 11 0,0
13.01.2020 22:00:00 6,9 4,4 - - 21 11 - - SW 996,2 9 0,0
13.01.2020 21:00:00 6,7 4,7 - - 16 9 - - SW 995,9 9 0,0
13.01.2020 20:00:00 7,0 4,7 - - 26 14 - - SSW 995,7 12 0,0

tt = Température de l'air
td = dewpoint
tt -20cm = Température de l'air -20cm
tt -100cm = Température de l'air -100cm
ff = Vitesse du vent
fx = gusts
dd = Direction du vent
ppp = reduced air pressure
vv = visibility
rr = Quantités de précipitations

stations d'obs. à proximité